| time (UTC) | temp F | wind direction | speed knots | gust knots | rain 1hr in | rain 24hr in | rain mn in | humidity % | barometer mb |
| 20260502200026 | 49 | 326 | 0.0 | 2.6 | 0.00 | 0.00 | 0.00 | 26 | 1019.1 |
| 20260502193026 | 50 | 333 | 0.0 | 2.6 | 0.00 | 0.00 | 0.00 | 26 | 1019.0 |
| 20260502190026 | 53 | 317 | 0.0 | 1.7 | 0.00 | 0.00 | 0.00 | 23 | 1018.3 |
| 20260502183025 | 56 | 303 | 0.0 | 3.5 | 0.00 | 0.00 | 0.00 | 22 | 1016.3 |
| 20260502163026 | 62 | 275 | 0.0 | 7.8 | 0.00 | 0.00 | 0.00 | 19 | 1015.0 |
| 20260502123027 | 65 | 288 | 0.0 | 10.4 | 0.00 | 0.00 | 0.00 | 18 | 1016.4 |
| 20260502113137 | 64 | 256 | 0.0 | 7.8 | 0.00 | 0.00 | 0.00 | 21 | 1017.9 |
| 20260502113026 | 64 | 256 | 0.0 | 7.8 | 0.00 | 0.00 | 0.00 | 21 | 1017.9 |
| 20260502110025 | 63 | 297 | 0.0 | 7.8 | 0.00 | 0.00 | 0.00 | 18 | 1018.2 |
| 20260502103026 | 62 | 260 | 0.0 | 8.7 | 0.00 | 0.00 | 0.00 | 21 | 1019.5 |
| 20260502070026 | 52 | 191 | 0.0 | 3.5 | 0.00 | 0.00 | 0.00 | 26 | 1023.0 |
| 20260502063027 | 50 | 198 | 0.0 | 3.5 | 0.00 | 0.00 | 0.00 | 28 | 1023.5 |
| 20260502060025 | 47 | 200 | 0.0 | 2.6 | 0.00 | 0.00 | 0.00 | 29 | 1024.3 |
| 20260502053025 | 43 | 327 | 0.0 | 0.0 | 0.00 | 0.00 | 0.00 | 33 | 1025.3 |
| 20260502050025 | 38 | 327 | 0.0 | 0.0 | 0.00 | 0.00 | 0.00 | 35 | 1026.5 |
| 20260502043025 | 37 | 0 | 0.0 | 0.0 | 0.00 | 0.00 | 0.00 | 34 | 1026.7 |
| 20260502040025 | 37 | 0 | 0.0 | 0.0 | 0.00 | 0.00 | 0.00 | 34 | 1026.8 |
| 20260502033025 | 37 | 0 | 0.0 | 1.7 | 0.00 | 0.00 | 0.00 | 33 | 1026.7 |
| 20260502030026 | 38 | 0 | 0.0 | 0.0 | 0.00 | 0.00 | 0.00 | 32 | 1026.6 |
| 20260502023025 | 38 | 0 | 0.0 | 0.0 | 0.00 | 0.00 | 0.00 | 32 | 1026.5 |
| 20260502020025 | 38 | 0 | 0.0 | 2.6 | 0.00 | 0.00 | 0.00 | 32 | 1026.4 |
| 20260502013025 | 38 | 0 | 0.0 | 2.6 | 0.00 | 0.00 | 0.00 | 32 | 1026.5 |
| 20260502010025 | 39 | 0 | 0.0 | 1.7 | 0.00 | 0.00 | 0.00 | 31 | 1026.3 |
| 20260502003025 | 38 | 0 | 0.0 | 2.6 | 0.00 | 0.00 | 0.00 | 31 | 1026.4 |
| 20260502000025 | 39 | 343 | 0.0 | 0.0 | 0.00 | 0.00 | 0.00 | 30 | 1026.3 |
| 20260501233025 | 39 | 343 | 0.0 | 0.0 | 0.00 | 0.00 | 0.00 | 30 | 1026.2 |
| 20260501230025 | 39 | 343 | 0.0 | 2.6 | 0.00 | 0.00 | 0.00 | 29 | 1026.2 |
| 20260501223025 | 40 | 342 | 0.0 | 2.6 | 0.00 | 0.00 | 0.00 | 29 | 1026.1 |
| 20260501220025 | 41 | 304 | 0.0 | 0.0 | 0.00 | 0.00 | 0.00 | 29 | 1025.7 |
| 20260501210025 | 42 | 1 | 0.0 | 2.6 | 0.00 | 0.00 | 0.00 | 28 | 1024.4 |
| 20260501203025 | 43 | 11 | 0.0 | 2.6 | 0.00 | 0.00 | 0.00 | 28 | 1024.2 |